SCP
0 0 0 0 0 0 0 0 0 0 0 0 0 0 0 0 0 0 0 0 0 0 0 0 0 0 0 0 0 0 0 0 0 0 0 0 0 0 0 0 0 0 0
0 0 0 0 0 0 0 0 0 0 0 0 0 0 0 0 0 0 0 0 0 0 0 0 0 0 0 0 0 0 0 0 0 0 0 0 0 0 0 0 0 0 0
0 0 0 0 0 0 0 0 0 0 0 0 0 0 0 0 0 0 0 0 0 0 0 0 0 0 0 0 0 0 0 0 0 0 0 0 0 0 0 0 0 0 0
0 0 0 0 0 0 0 0 0 0 0 0 0 0 0 0 0 0 0 0 0 0 0 0 0 0 0 0 0 0 0 0 0 0 0 0 0 0 0 0 0 0 0
0 0 0 0 0 0 0 0 0 0 0 0 0 0 0 0 0 0 0 0 0 0 0 0 0 0 0 0 0 0 0 0 0 0 0 0 0 0 0 0 0 0 0
0 0 0 0 0 0 0 0 0 0 0 0 0 0 0 0 0 0 0 0 0 0 0 0 0 0 0 0 0 0 0 0 0 0 0 0 0 0 0 0 0 0 0
0 0 0 0 0 0 0 0 0 0 0 0 0 0 0 0 0 0 0 0 0 0 0 0 0 0 0 0 0 0 0 0 0 0 0 0 0 0 0 0 0 0 0
0 0 0 0 0 0 0 0 0 0 0 0 0 0 0 0 0 0 0 0 0 0 0 0 0 0 0 0 0 0 0 0 0 0 0 0 0 0 0 0 0 0 0
0 0 0 0 0 0 0 0 0 0 0 0 0 0 0 0 0 0 0 0 0 0 0 0 0 0 0 0 0 0 0 0 0 0 0 0 0 0 0 0 0 0 0
0 0 0 0 0 0 0 0 0 0 0 0 0 0 0 0 0 0 0 0 0 0 0 0 0 0 0 0 0 0 0 0 0 0 0 0 0 0 0 0 0 0 0
0 0 0 0 0 0 0 0 0 0 0 0 0 0 0 0 0 0 0 0 0 0 0 0 0 0 0 0 0 0 0 0 0 0 0 0 0 0 0 0 0 0 0
0 0 0 0 0 0 0 0 0 0 0 0 0 0 0 0 0 0 0 0 0 0 0 0 0 0 0 0 0 0 0 0 0 0 0 0 0 0 0 0 0 0 0
0 0 0 0 0 0 0 0 0 0 0 0 0 0 0 0 0 0 0 0 0 0 0 0 0 0 0 0 0 0 0 0 0 0 0 0 0 0 0 0 0 0 0
0 0 0 0 0 0 0 0 0 0 0 0 0 0 0 0 0 0 0 0 0 0 0 0 0 0 0 0 0 0 0 0 0 0 0 0 0 0 0 0 0 0 0
0 0 0 0 0 0 0 0 0 0 0 0 0 0 0 0 0 0 0 0 0 0 0 0 0 0 0 0 0 0 0 0 0 0 0 0 0 0 0 0 0 0 0
0 0 0 0 0 0 0 0 0 0 0 0 0 0 0 0 0 0 0 0 0 0 0 0 0 0 0 0 0 0 0 0 0 0 0 0 0 0 0 0 0 0 0
0 0 0 0 0 0 0 0 0 0 0 0 0 0 0 0 0 0 0 0 0 0 0 0 0 0 0 0 0 0 0 0 0 0 0 0 0 0 0 0 0 0 0
0 0 0 0 0 0 0 0 0 0 0 0 0 0 0 0 0 0 0 0 0 0 0 0 0 0 0 0 0 0 0 0 0 0 0 0 0 0 0 0 0 0 0
0 0 0 0 0 0 0 0 0 0 0 0 0 0 0 0 0 0 0 0 0 0 0 0 0 0 0 0 0 0 0 0 0 0 0 0 0 0 0 0 0 0 0
0 0 0 0 0 0 0 0 0 0 0 0 0 0 0 0 0 0 0 0 0 0 0 0 0 0 0 0 0 0 0 0 0 0 0 0 0 0 0 0 0 0 0
0 0 0 0 0 0 0 0 0 0 0 0 0 0 0 0 0 0 0 0 0 0 0 0 0 0 0 0 0 0 0 0 0 0 0 0 0 0 0 0 0 0 0
0 0 0 0 0 0 0 0 0 0 0 0 0 0 0 0 0 0 0 0 0 0 0 0 0 0 0 0 0 0 0 0 0 0 0 0 0 0 0 0 0 0 0
0 0 0 0 0 0 0 0 0 0 0 0 0 0 0 0 0 0 0 0 0 0 0 0 0 0 0 0 0 0 0 0 0 0 0 0 0 0 0 0 0 0 0
0 0 0 0 0 0 0 0 0 0 0 0 0 0 0 0 0 0 0 0 0 0 0 0 0 0 0 0 0 0 0 0 0 0 0 0 0 0 0 0 0 0 0
0 0 0 0 0 0 0 0 0 0 0 0 0 0 0 0 0 0 0 0 0 0 0 0 0 0 0 0 0 0 0 0 0 0 0 0 0 0 0 0 0 0 0
0 0 0 0 0 0 0 0 0 0 0 0 0 0 0 0 0 0 0 0 0 0 0 0 0 0 0 0 0 0 0 0 0 0 0 0 0 0 0 0 0 0 0
Wind_Speed_500mb
14 15 15 14 14 14 13 11 11 12 14 15 16 16 17 17 17 17 17 15 14 14 14 16 15 15 23 25 29 34 31 20 16 14 14 13 10 6 7 11 13 15 16
18 16 16 17 17 17 16 15 16 17 17 18 20 21 22 23 24 24 24 22 21 20 19 21 21 21 29 34 37 35 29 20 18 16 13 12 8 6 4 5 8 11 14
20 19 19 20 19 18 19 20 20 22 23 23 23 26 27 28 29 30 31 30 28 27 25 25 26 28 33 39 40 36 31 24 21 18 15 11 8 2 1 4 7 9 12
24 24 23 21 21 22 22 23 24 26 27 28 27 29 32 34 35 36 38 37 35 32 30 30 29 30 34 39 44 40 33 28 24 20 15 10 5 3 2 3 5 8 8
32 30 27 25 27 28 28 27 29 31 31 32 32 34 36 40 40 42 43 43 40 37 36 38 35 34 35 42 42 40 34 30 26 22 16 11 8 6 4 1 2 3 6
38 36 35 32 33 35 35 34 34 35 37 37 39 41 42 44 45 47 48 46 47 46 44 46 44 46 42 42 39 40 38 33 29 25 20 15 12 10 7 5 4 1 2
43 44 42 40 41 44 41 41 42 43 45 42 46 48 50 49 50 51 52 53 50 53 51 51 53 50 48 48 41 41 40 37 31 28 25 20 17 15 14 12 10 7 4
49 49 49 47 47 50 50 49 50 51 51 49 50 51 48 50 53 48 50 49 57 57 57 59 63 62 56 54 54 44 43 43 40 35 32 29 25 22 20 19 16 12 9
53 54 55 56 56 55 57 56 55 56 59 58 54 52 28 30 41 48 51 49 49 55 59 62 69 69 63 64 62 57 52 50 48 41 38 35 33 30 28 25 20 16 12
56 58 58 61 63 62 63 63 61 62 62 66 64 65 67 68 60 53 53 59 58 67 64 62 63 66 69 73 70 71 62 58 50 46 43 41 38 36 33 28 24 20 17
51 52 55 61 63 65 66 67 67 68 70 70 71 72 73 72 74 80 75 64 68 82 81 67 65 71 72 72 82 80 80 74 59 52 52 49 45 43 38 32 28 25 21
49 48 47 49 51 55 59 62 62 66 70 73 74 76 78 77 73 75 84 93 93 97 89 85 81 80 81 84 85 90 95 92 82 57 50 59 54 49 43 37 32 28 24
47 44 45 47 49 49 50 53 56 57 58 63 64 70 76 81 83 87 93 100 89 97 98 101 98 93 92 94 99 100 108 110 96 62 58 62 61 55 48 42 34 31 27
54 52 51 51 49 48 48 48 49 51 54 58 61 64 67 72 73 78 87 91 90 86 94 108 101 103 98 97 99 108 116 115 85 70 61 59 67 59 52 46 39 35 29
58 54 53 52 51 51 47 45 50 53 55 58 61 63 65 68 69 71 77 74 86 78 88 87 87 90 85 80 85 106 125 102 101 83 68 62 66 62 55 49 43 37 32
53 52 52 53 53 50 43 45 50 51 54 55 60 61 61 63 64 66 72 74 78 81 88 96 88 97 83 89 79 76 91 113 91 82 62 65 66 60 57 52 46 41 35
49 50 50 49 47 45 42 43 46 46 51 51 56 58 60 62 60 66 64 69 82 82 79 93 87 78 87 69 68 76 73 93 93 91 69 67 65 62 61 56 49 42 38
41 41 42 44 43 41 41 44 45 49 49 48 47 51 57 60 60 53 62 62 59 73 65 70 75 79 66 66 79 70 74 73 98 81 69 67 69 64 61 57 49 45 39
37 41 43 43 42 43 43 44 45 46 50 51 44 51 52 48 48 45 44 46 56 52 56 67 69 66 64 62 61 62 72 76 83 68 71 68 61 64 59 56 50 45 42
39 39 37 37 37 37 36 39 41 43 46 51 54 58 57 49 60 58 65 67 66 59 58 63 63 60 60 59 61 59 63 72 63 71 69 65 64 62 60 54 51 49 42
34 34 33 33 33 33 34 37 38 40 44 45 44 48 52 61 63 62 64 61 49 49 53 63 56 54 55 57 57 56 58 54 65 71 70 62 59 62 56 55 53 47 39
36 34 32 32 33 35 36 39 40 39 41 44 43 45 50 53 49 56 43 41 44 48 40 44 42 41 44 42 43 47 48 56 62 65 66 56 61 57 51 54 40 45 57
36 34 31 32 33 33 36 39 41 41 40 40 41 40 38 33 34 40 39 39 37 42 37 34 37 33 37 33 30 41 52 54 57 52 43 53 59 55 50 40 43 56 58
32 31 30 32 31 32 34 43 35 32 31 30 31 31 28 28 35 35 34 32 32 33 34 28 16 24 28 30 32 29 31 35 41 41 41 40 34 41 37 45 55 55 64
33 33 32 34 35 32 31 32 26 22 22 27 24 20 17 18 24 26 24 24 19 13 23 20 22 24 23 23 20 25 26 31 36 35 41 45 40 40 49 56 71 62 61
33 33 29 30 30 28 22 17 16 16 14 13 19 23 21 23 20 20 18 14 15 15 13 17 20 16 15 11 9 13 20 26 31 26 31 36 39 48 46 49 49 52 53
Wind_Direction_500mb
199 200 204 205 203 208 214 227 244 259 267 271 272 271 265 269 273 279 283 292 297 301 299 286 293 287 273 287 308 316 313 302 300 300 305 311 326 356 36 62 67 66 60
207 209 213 216 218 222 230 245 255 261 267 272 276 275 271 270 272 277 280 284 287 287 290 286 290 275 283 300 310 312 307 295 291 293 294 298 303 315 357 58 63 54 46
215 217 219 224 227 233 242 252 259 263 267 271 273 276 276 276 276 277 279 280 283 284 287 289 290 291 295 304 307 307 300 291 290 292 287 292 294 305 83 70 53 43 48
224 225 228 230 236 241 247 254 261 266 270 273 276 277 278 277 278 278 278 279 281 281 284 287 284 291 297 302 306 301 291 284 283 281 279 277 260 213 124 55 57 57 59
231 234 235 234 239 246 251 256 261 267 272 274 277 275 277 278 278 276 278 279 283 290 286 291 284 288 296 301 303 301 292 285 282 276 268 258 238 232 227 278 14 93 84
239 242 243 241 245 250 254 258 264 269 273 273 275 276 277 278 277 279 281 280 282 279 278 279 279 282 277 281 288 290 287 279 278 271 261 250 241 239 241 230 227 212 93
243 247 249 248 249 253 258 261 263 264 268 273 277 280 281 280 280 284 284 277 276 278 274 276 277 279 276 278 271 275 279 277 272 267 261 248 239 233 225 227 228 229 216
250 251 255 255 254 256 258 260 263 267 271 272 272 280 288 290 291 293 291 287 272 271 274 274 271 271 273 269 274 270 273 272 270 260 249 243 235 233 232 235 230 222 219
255 257 259 261 260 260 263 265 266 268 273 275 274 271 274 278 289 292 289 286 282 269 268 273 268 269 271 262 269 267 264 261 262 256 245 240 237 232 228 228 227 226 227
260 262 264 265 266 266 266 270 271 271 271 273 275 273 271 272 275 285 280 279 274 280 277 269 282 273 268 266 268 269 260 257 254 257 245 242 236 232 229 231 230 229 230
260 262 264 266 267 270 271 271 273 272 272 271 272 274 276 274 273 269 277 277 276 278 279 274 274 273 276 270 264 266 259 251 238 235 249 241 237 233 234 231 232 231 236
264 267 271 273 275 276 276 277 276 275 274 273 272 273 272 269 268 271 273 279 278 283 283 278 273 274 275 271 267 263 259 252 244 229 234 241 236 234 234 234 235 237 238
267 272 274 275 277 279 280 277 275 276 278 278 277 275 274 273 276 276 275 278 275 282 283 284 282 277 272 270 267 264 257 253 248 237 232 234 237 235 234 236 238 240 243
268 273 276 277 276 276 276 275 275 275 275 276 278 282 283 282 282 279 279 276 272 275 279 283 284 283 280 277 273 265 255 248 245 237 232 225 234 235 235 238 239 239 243
270 274 274 275 274 272 272 273 273 274 277 279 282 284 286 288 291 292 291 284 279 275 281 288 291 288 287 283 297 269 256 261 245 239 224 220 230 233 235 238 240 240 245
266 267 266 266 267 269 274 272 274 277 276 280 282 285 285 289 292 291 293 296 292 281 281 283 290 279 286 288 288 300 278 256 241 241 230 221 229 230 235 236 240 242 247
258 260 261 264 266 269 269 267 271 274 275 275 273 280 283 285 287 288 293 296 297 281 283 288 282 289 287 285 295 302 268 260 245 235 229 220 231 230 234 237 238 241 249
252 260 263 263 266 269 266 262 265 266 270 266 280 279 281 282 284 290 292 295 302 293 295 291 294 293 298 295 300 289 278 261 242 231 224 234 225 231 233 237 239 242 252
259 263 268 274 277 279 280 280 276 275 270 276 266 271 276 288 286 288 289 287 290 299 298 290 299 299 303 297 297 287 274 261 244 236 228 228 228 233 236 239 242 242 251
260 266 270 271 272 272 273 272 273 275 275 273 269 268 266 265 275 275 279 283 282 284 287 291 293 295 300 295 287 274 268 259 245 232 227 226 229 234 241 242 244 244 250
258 263 267 269 270 273 275 277 281 282 281 280 276 271 268 265 271 272 280 283 287 287 289 286 286 295 298 298 295 292 273 262 238 229 229 230 232 235 238 242 245 249 263
255 259 263 267 268 269 273 275 276 277 280 280 279 274 271 272 272 275 277 280 281 283 293 289 290 296 297 292 293 288 259 238 228 231 232 234 232 236 239 245 252 268 264
255 257 261 268 271 272 277 284 290 289 285 282 281 282 282 280 278 278 274 279 287 288 291 293 298 304 300 292 270 262 246 244 242 230 236 239 237 243 241 242 272 284 260
249 253 261 265 269 272 278 282 292 295 302 305 298 293 293 286 288 283 276 277 288 304 301 304 303 319 312 287 275 264 261 235 226 239 240 238 246 235 248 263 281 287 263
241 248 256 263 267 270 271 283 301 309 324 331 328 325 326 319 317 328 304 288 276 298 313 308 310 315 322 301 270 227 218 227 233 236 231 229 239 256 275 286 290 270 262
244 251 256 257 265 268 270 274 289 302 300 304 303 295 299 296 297 290 299 305 310 318 340 335 325 326 325 299 255 251 257 259 244 239 238 243 263 279 280 285 272 263 266
Wind_Speed_850mb
14 15 15 14 14 14 13 11 11 12 14 15 16 16 17 17 17 17 17 15 14 14 14 16 15 15 23 25 29 34 31 20 16 14 14 13 10 6 7 11 13 15 16
18 16 16 17 17 17 16 15 16 17 17 18 20 21 22 23 24 24 24 22 21 20 19 21 21 21 29 34 37 35 29 20 18 16 13 12 8 6 4 5 8 11 14
20 19 19 20 19 18 19 20 20 22 23 23 23 26 27 28 29 30 31 30 28 27 25 25 26 28 33 39 40 36 31 24 21 18 15 11 8 2 1 4 7 9 12
24 24 23 21 21 22 22 23 24 26 27 28 27 29 32 34 35 36 38 37 35 32 30 30 29 30 34 39 44 40 33 28 24 20 15 10 5 3 2 3 5 8 8
32 30 27 25 27 28 28 27 29 31 31 32 32 34 36 40 40 42 43 43 40 37 36 38 35 34 35 42 42 40 34 30 26 22 16 11 8 6 4 1 2 3 6
38 36 35 32 33 35 35 34 34 35 37 37 39 41 42 44 45 47 48 46 47 46 44 46 44 46 42 42 39 40 38 33 29 25 20 15 12 10 7 5 4 1 2
43 44 42 40 41 44 41 41 42 43 45 42 46 48 50 49 50 51 52 53 50 53 51 51 53 50 48 48 41 41 40 37 31 28 25 20 17 15 14 12 10 7 4
49 49 49 47 47 50 50 49 50 51 51 49 50 51 48 50 53 48 50 49 57 57 57 59 63 62 56 54 54 44 43 43 40 35 32 29 25 22 20 19 16 12 9
53 54 55 56 56 55 57 56 55 56 59 58 54 52 28 30 41 48 51 49 49 55 59 62 69 69 63 64 62 57 52 50 48 41 38 35 33 30 28 25 20 16 12
56 58 58 61 63 62 63 63 61 62 62 66 64 65 67 68 60 53 53 59 58 67 64 62 63 66 69 73 70 71 62 58 50 46 43 41 38 36 33 28 24 20 17
51 52 55 61 63 65 66 67 67 68 70 70 71 72 73 72 74 80 75 64 68 82 81 67 65 71 72 72 82 80 80 74 59 52 52 49 45 43 38 32 28 25 21
49 48 47 49 51 55 59 62 62 66 70 73 74 76 78 77 73 75 84 93 93 97 89 85 81 80 81 84 85 90 95 92 82 57 50 59 54 49 43 37 32 28 24
47 44 45 47 49 49 50 53 56 57 58 63 64 70 76 81 83 87 93 100 89 97 98 101 98 93 92 94 99 100 108 110 96 62 58 62 61 55 48 42 34 31 27
54 52 51 51 49 48 48 48 49 51 54 58 61 64 67 72 73 78 87 91 90 86 94 108 101 103 98 97 99 108 116 115 85 70 61 59 67 59 52 46 39 35 29
58 54 53 52 51 51 47 45 50 53 55 58 61 63 65 68 69 71 77 74 86 78 88 87 87 90 85 80 85 106 125 102 101 83 68 62 66 62 55 49 43 37 32
53 52 52 53 53 50 43 45 50 51 54 55 60 61 61 63 64 66 72 74 78 81 88 96 88 97 83 89 79 76 91 113 91 82 62 65 66 60 57 52 46 41 35
49 50 50 49 47 45 42 43 46 46 51 51 56 58 60 62 60 66 64 69 82 82 79 93 87 78 87 69 68 76 73 93 93 91 69 67 65 62 61 56 49 42 38
41 41 42 44 43 41 41 44 45 49 49 48 47 51 57 60 60 53 62 62 59 73 65 70 75 79 66 66 79 70 74 73 98 81 69 67 69 64 61 57 49 45 39
37 41 43 43 42 43 43 44 45 46 50 51 44 51 52 48 48 45 44 46 56 52 56 67 69 66 64 62 61 62 72 76 83 68 71 68 61 64 59 56 50 45 42
39 39 37 37 37 37 36 39 41 43 46 51 54 58 57 49 60 58 65 67 66 59 58 63 63 60 60 59 61 59 63 72 63 71 69 65 64 62 60 54 51 49 42
34 34 33 33 33 33 34 37 38 40 44 45 44 48 52 61 63 62 64 61 49 49 53 63 56 54 55 57 57 56 58 54 65 71 70 62 59 62 56 55 53 47 39
36 34 32 32 33 35 36 39 40 39 41 44 43 45 50 53 49 56 43 41 44 48 40 44 42 41 44 42 43 47 48 56 62 65 66 56 61 57 51 54 40 45 57
36 34 31 32 33 33 36 39 41 41 40 40 41 40 38 33 34 40 39 39 37 42 37 34 37 33 37 33 30 41 52 54 57 52 43 53 59 55 50 40 43 56 58
32 31 30 32 31 32 34 43 35 32 31 30 31 31 28 28 35 35 34 32 32 33 34 28 16 24 28 30 32 29 31 35 41 41 41 40 34 41 37 45 55 55 64
33 33 32 34 35 32 31 32 26 22 22 27 24 20 17 18 24 26 24 24 19 13 23 20 22 24 23 23 20 25 26 31 36 35 41 45 40 40 49 56 71 62 61
33 33 29 30 30 28 22 17 16 16 14 13 19 23 21 23 20 20 18 14 15 15 13 17 20 16 15 11 9 13 20 26 31 26 31 36 39 48 46 49 49 52 53
Wind_Direction_850mb
199 200 204 205 203 208 214 227 244 259 267 271 272 271 265 269 273 279 283 292 297 301 299 286 293 287 273 287 308 316 313 302 300 300 305 311 326 356 36 62 67 66 60
207 209 213 216 218 222 230 245 255 261 267 272 276 275 271 270 272 277 280 284 287 287 290 286 290 275 283 300 310 312 307 295 291 293 294 298 303 315 357 58 63 54 46
215 217 219 224 227 233 242 252 259 263 267 271 273 276 276 276 276 277 279 280 283 284 287 289 290 291 295 304 307 307 300 291 290 292 287 292 294 305 83 70 53 43 48
224 225 228 230 236 241 247 254 261 266 270 273 276 277 278 277 278 278 278 279 281 281 284 287 284 291 297 302 306 301 291 284 283 281 279 277 260 213 124 55 57 57 59
231 234 235 234 239 246 251 256 261 267 272 274 277 275 277 278 278 276 278 279 283 290 286 291 284 288 296 301 303 301 292 285 282 276 268 258 238 232 227 278 14 93 84
239 242 243 241 245 250 254 258 264 269 273 273 275 276 277 278 277 279 281 280 282 279 278 279 279 282 277 281 288 290 287 279 278 271 261 250 241 239 241 230 227 212 93
243 247 249 248 249 253 258 261 263 264 268 273 277 280 281 280 280 284 284 277 276 278 274 276 277 279 276 278 271 275 279 277 272 267 261 248 239 233 225 227 228 229 216
250 251 255 255 254 256 258 260 263 267 271 272 272 280 288 290 291 293 291 287 272 271 274 274 271 271 273 269 274 270 273 272 270 260 249 243 235 233 232 235 230 222 219
255 257 259 261 260 260 263 265 266 268 273 275 274 271 274 278 289 292 289 286 282 269 268 273 268 269 271 262 269 267 264 261 262 256 245 240 237 232 228 228 227 226 227
260 262 264 265 266 266 266 270 271 271 271 273 275 273 271 272 275 285 280 279 274 280 277 269 282 273 268 266 268 269 260 257 254 257 245 242 236 232 229 231 230 229 230
260 262 264 266 267 270 271 271 273 272 272 271 272 274 276 274 273 269 277 277 276 278 279 274 274 273 276 270 264 266 259 251 238 235 249 241 237 233 234 231 232 231 236
264 267 271 273 275 276 276 277 276 275 274 273 272 273 272 269 268 271 273 279 278 283 283 278 273 274 275 271 267 263 259 252 244 229 234 241 236 234 234 234 235 237 238
267 272 274 275 277 279 280 277 275 276 278 278 277 275 274 273 276 276 275 278 275 282 283 284 282 277 272 270 267 264 257 253 248 237 232 234 237 235 234 236 238 240 243
268 273 276 277 276 276 276 275 275 275 275 276 278 282 283 282 282 279 279 276 272 275 279 283 284 283 280 277 273 265 255 248 245 237 232 225 234 235 235 238 239 239 243
270 274 274 275 274 272 272 273 273 274 277 279 282 284 286 288 291 292 291 284 279 275 281 288 291 288 287 283 297 269 256 261 245 239 224 220 230 233 235 238 240 240 245
266 267 266 266 267 269 274 272 274 277 276 280 282 285 285 289 292 291 293 296 292 281 281 283 290 279 286 288 288 300 278 256 241 241 230 221 229 230 235 236 240 242 247
258 260 261 264 266 269 269 267 271 274 275 275 273 280 283 285 287 288 293 296 297 281 283 288 282 289 287 285 295 302 268 260 245 235 229 220 231 230 234 237 238 241 249
252 260 263 263 266 269 266 262 265 266 270 266 280 279 281 282 284 290 292 295 302 293 295 291 294 293 298 295 300 289 278 261 242 231 224 234 225 231 233 237 239 242 252
259 263 268 274 277 279 280 280 276 275 270 276 266 271 276 288 286 288 289 287 290 299 298 290 299 299 303 297 297 287 274 261 244 236 228 228 228 233 236 239 242 242 251
260 266 270 271 272 272 273 272 273 275 275 273 269 268 266 265 275 275 279 283 282 284 287 291 293 295 300 295 287 274 268 259 245 232 227 226 229 234 241 242 244 244 250
258 263 267 269 270 273 275 277 281 282 281 280 276 271 268 265 271 272 280 283 287 287 289 286 286 295 298 298 295 292 273 262 238 229 229 230 232 235 238 242 245 249 263
255 259 263 267 268 269 273 275 276 277 280 280 279 274 271 272 272 275 277 280 281 283 293 289 290 296 297 292 293 288 259 238 228 231 232 234 232 236 239 245 252 268 264
255 257 261 268 271 272 277 284 290 289 285 282 281 282 282 280 278 278 274 279 287 288 291 293 298 304 300 292 270 262 246 244 242 230 236 239 237 243 241 242 272 284 260
249 253 261 265 269 272 278 282 292 295 302 305 298 293 293 286 288 283 276 277 288 304 301 304 303 319 312 287 275 264 261 235 226 239 240 238 246 235 248 263 281 287 263
241 248 256 263 267 270 271 283 301 309 324 331 328 325 326 319 317 328 304 288 276 298 313 308 310 315 322 301 270 227 218 227 233 236 231 229 239 256 275 286 290 270 262
244 251 256 257 265 268 270 274 289 302 300 304 303 295 299 296 297 290 299 305 310 318 340 335 325 326 325 299 255 251 257 259 244 239 238 243 263 279 280 285 272 263 266